When you browse on this site, cookies collect data to enhance your experience and personalize the content and advertising you see.
Visit our Privacy Policy to learn more. By continuing to use the site, you agree to this use of cookies and data.
  • In Spain
  • List of Countries
  • For 7 days
  • Water Temperature
  • Weather Map
  • Weather Widgets
  • user-avatar
    Login

    Hourly Weather Taraz

    Today, 23 February, Sunday

    Time Temperature Precipitation Wind Pressure Humidity
    00:00 +3°C° 0 mm 2 mps 713 mmHg 82%
    01:00 +3°C° 0 mm 2 mps 713 mmHg 82%
    02:00 +2°C° 0 mm 2 mps 713 mmHg 82%
    03:00 +3°C° 0 mm 1 mps 713 mmHg 82%
    04:00 +3°C° 0 mm 1 mps 713 mmHg 83%
    05:00 +2°C° 0 mm 1 mps 712 mmHg 83%
    06:00 +2°C° 0 mm 1 mps 712 mmHg 83%
    07:00 +2°C° 0 mm 1 mps 712 mmHg 84%
    08:00 +2°C° 0 mm 1 mps 712 mmHg 84%
    09:00 +2°C° 0 mm 2 mps 712 mmHg 80%
    10:00 +3°C° 0 mm 2 mps 712 mmHg 76%
    11:00 +4°C° 0 mm 2 mps 712 mmHg 72%
    12:00 +5°C° 0 mm 2 mps 711 mmHg 68%
    13:00 +6°C° 0 mm 2 mps 711 mmHg 64%
    14:00 +7°C° 0 mm 2 mps 710 mmHg 61%
    15:00 +7°C° 0 mm 2 mps 710 mmHg 62%
    16:00 +7°C° 0 mm 2 mps 710 mmHg 63%
    17:00 +7°C° 0 mm 2 mps 710 mmHg 64%
    18:00 +6°C° 0 mm 2 mps 709 mmHg 69%
    19:00 +5°C° 0 mm 2 mps 709 mmHg 75%
    20:00 +5°C° 0 mm 1 mps 709 mmHg 81%
    21:00 +5°C° 0 mm 1 mps 709 mmHg 82%
    22:00 +5°C° 0 mm 1 mps 709 mmHg 83%
    23:00 +5°C° 0 mm 1 mps 708 mmHg 84%

    Tomorrow, 24 February, Monday

    Time Temperature Precipitation Wind Pressure Humidity
    00:00 +5°C° 0 mm 1 mps 708 mmHg 84%
    01:00 +5°C° 0 mm 1 mps 708 mmHg 84%
    02:00 +5°C° 0 mm 1 mps 708 mmHg 84%
    03:00 +5°C° 0.4 mm 1 mps 708 mmHg 85%
    04:00 +5°C° 0.4 mm 1 mps 708 mmHg 87%
    05:00 +5°C° 0.4 mm 1 mps 708 mmHg 88%
    06:00 +5°C° 1.2 mm 1 mps 708 mmHg 90%
    07:00 +6°C° 1.2 mm 1 mps 708 mmHg 92%
    08:00 +6°C° 1.2 mm 1 mps 709 mmHg 94%
    09:00 +6°C° 1 mm 1 mps 709 mmHg 92%
    10:00 +7°C° 1 mm 1 mps 709 mmHg 91%
    11:00 +6°C° 1 mm 2 mps 709 mmHg 89%
    12:00 +7°C° 0.1 mm 2 mps 709 mmHg 83%
    13:00 +8°C° 0.1 mm 2 mps 709 mmHg 77%
    14:00 +9°C° 0.1 mm 2 mps 709 mmHg 71%
    15:00 +10°C° 0 mm 1 mps 709 mmHg 72%
    16:00 +10°C° 0 mm 1 mps 709 mmHg 73%
    17:00 +10°C° 0 mm 1 mps 709 mmHg 74%
    18:00 +9°C° 0 mm 1 mps 709 mmHg 76%
    19:00 +8°C° 0 mm 1 mps 709 mmHg 78%
    20:00 +7°C° 0 mm 1 mps 709 mmHg 80%
    21:00 +7°C° 0 mm 1 mps 709 mmHg 80%
    22:00 +7°C° 0 mm 1 mps 708 mmHg 80%
    23:00 +6°C° 0 mm 1 mps 708 mmHg 79%

    Day after tomorrow, 25 February, Tuesday

    Time Temperature Precipitation Wind Pressure Humidity
    00:00 +6°C° 0 mm 1 mps 708 mmHg 79%
    01:00 +6°C° 0 mm 1 mps 708 mmHg 78%
    02:00 +6°C° 0 mm 1 mps 708 mmHg 78%
    03:00 +6°C° 0 mm 1 mps 708 mmHg 75%
    04:00 +6°C° 0 mm 1 mps 708 mmHg 73%
    05:00 +6°C° 0 mm 1 mps 708 mmHg 70%
    06:00 +6°C° 0 mm 1 mps 708 mmHg 67%
    07:00 +7°C° 0 mm 1 mps 708 mmHg 64%
    08:00 +7°C° 0 mm 1 mps 708 mmHg 61%
    09:00 +9°C° 0 mm 1 mps 708 mmHg 54%
    10:00 +11°C° 0 mm 1 mps 708 mmHg 46%
    11:00 +13°C° 0 mm 1 mps 708 mmHg 39%
    12:00 +14°C° 0 mm 2 mps 708 mmHg 38%
    13:00 +14°C° 0 mm 2 mps 708 mmHg 37%
    14:00 +14°C° 0 mm 3 mps 707 mmHg 36%
    15:00 +14°C° 0 mm 3 mps 707 mmHg 39%
    16:00 +13°C° 0 mm 3 mps 707 mmHg 41%
    17:00 +13°C° 0 mm 3 mps 707 mmHg 44%
    18:00 +13°C° 0 mm 2 mps 707 mmHg 50%
    19:00 +10°C° 0 mm 2 mps 707 mmHg 56%
    20:00 +10°C° 0 mm 1 mps 707 mmHg 61%
    21:00 +8°C° 0 mm 2 mps 707 mmHg 58%
    22:00 +8°C° 0 mm 2 mps 707 mmHg 54%
    23:00 +8°C° 0 mm 3 mps 707 mmHg 50%

    26 February, Wednesday

    Time Temperature Precipitation Wind Pressure Humidity
    00:00 +8°C° 0 mm 3 mps 707 mmHg 47%
    01:00 +8°C° 0 mm 3 mps 706 mmHg 44%
    02:00 +7°C° 0 mm 4 mps 706 mmHg 41%
    03:00 +7°C° 0 mm 4 mps 706 mmHg 40%
    04:00 +7°C° 0 mm 4 mps 705 mmHg 38%
    05:00 +7°C° 0 mm 5 mps 705 mmHg 36%
    06:00 +7°C° 0 mm 5 mps 705 mmHg 35%
    07:00 +8°C° 0 mm 5 mps 705 mmHg 34%
    08:00 +9°C° 0 mm 6 mps 705 mmHg 33%
    09:00 +12°C° 0 mm 5 mps 705 mmHg 32%
    10:00 +13°C° 0 mm 4 mps 704 mmHg 32%
    11:00 +16°C° 0 mm 3 mps 704 mmHg 31%
    12:00 +15°C° 0 mm 4 mps 704 mmHg 35%
    13:00 +15°C° 0 mm 4 mps 703 mmHg 39%
    14:00 +15°C° 0 mm 5 mps 703 mmHg 43%
    15:00 +13°C° 0.1 mm 6 mps 703 mmHg 54%
    16:00 +10°C° 0.1 mm 8 mps 704 mmHg 65%
    17:00 +7°C° 0.1 mm 9 mps 705 mmHg 75%
    18:00 +6°C° 0.3 mm 8 mps 706 mmHg 76%
    19:00 +7°C° 0.3 mm 6 mps 707 mmHg 76%
    20:00 +6°C° 0.3 mm 5 mps 708 mmHg 77%
    21:00 +6°C° 0.4 mm 5 mps 708 mmHg 77%
    22:00 +4°C° 0.4 mm 6 mps 709 mmHg 77%
    23:00 +4°C° 0.4 mm 6 mps 709 mmHg 77%

    27 February, Thursday

    Time Temperature Precipitation Wind Pressure Humidity
    00:00 +3°C° 0.1 mm 5 mps 709 mmHg 74%
    01:00 +3°C° 0.1 mm 4 mps 709 mmHg 71%
    02:00 +3°C° 0.1 mm 3 mps 710 mmHg 68%
    03:00 +2°C° 0 mm 3 mps 710 mmHg 68%
    04:00 +3°C° 0 mm 2 mps 710 mmHg 68%
    05:00 +4°C° 0 mm 1 mps 710 mmHg 68%
    06:00 +4°C° 0 mm 1 mps 710 mmHg 67%
    07:00 +4°C° 0 mm 1 mps 711 mmHg 66%
    08:00 +4°C° 0 mm 1 mps 711 mmHg 64%
    09:00 +5°C° 0 mm 1 mps 712 mmHg 60%
    10:00 +5°C° 0 mm 2 mps 712 mmHg 55%
    11:00 +5°C° 0 mm 2 mps 712 mmHg 50%
    12:00 +6°C° 0 mm 2 mps 712 mmHg 47%
    13:00 +7°C° 0 mm 2 mps 712 mmHg 45%
    14:00 +8°C° 0 mm 3 mps 712 mmHg 43%
    15:00 +7°C° 0 mm 3 mps 712 mmHg 42%
    16:00 +6°C° 0 mm 4 mps 712 mmHg 41%
    17:00 +5°C° 0 mm 4 mps 712 mmHg 40%
    18:00 +4°C° 0 mm 4 mps 712 mmHg 43%
    19:00 +3°C° 0 mm 3 mps 712 mmHg 46%
    20:00 +3°C° 0 mm 2 mps 713 mmHg 49%
    21:00 +2°C° 0 mm 2 mps 712 mmHg 50%
    22:00 +1°C° 0 mm 2 mps 712 mmHg 51%
    23:00 +1°C° 0 mm 2 mps 712 mmHg 52%

    28 February, Friday

    Time Temperature Precipitation Wind Pressure Humidity
    00:00 +1°C° 0 mm 1 mps 712 mmHg 53%
    01:00 +1°C° 0 mm 1 mps 712 mmHg 55%
    02:00 0°C° 0 mm 1 mps 712 mmHg 56%
    03:00 0°C° 0 mm 1 mps 712 mmHg 58%
    04:00 0°C° 0 mm 1 mps 712 mmHg 60%
    05:00 -3°C° 0 mm 2 mps 712 mmHg 62%
    06:00 -2°C° 0 mm 2 mps 712 mmHg 61%
    07:00 -2°C° 0 mm 2 mps 712 mmHg 60%
    08:00 -2°C° 0 mm 2 mps 712 mmHg 59%
    09:00 0°C° 0 mm 3 mps 712 mmHg 55%
    10:00 +2°C° 0 mm 3 mps 712 mmHg 51%
    11:00 +3°C° 0 mm 4 mps 711 mmHg 47%
    12:00 +4°C° 0 mm 4 mps 711 mmHg 46%
    13:00 +5°C° 0 mm 5 mps 711 mmHg 45%
    14:00 +7°C° 0 mm 5 mps 710 mmHg 44%
    15:00 +6°C° 0 mm 5 mps 710 mmHg 46%
    16:00 +6°C° 0 mm 5 mps 710 mmHg 47%
    17:00 +6°C° 0 mm 5 mps 710 mmHg 49%
    18:00 +5°C° 0 mm 4 mps 710 mmHg 52%
    19:00 +3°C° 0 mm 3 mps 710 mmHg 56%
    20:00 +3°C° 0 mm 2 mps 710 mmHg 59%
    21:00 +3°C° 0 mm 2 mps 710 mmHg 62%
    22:00 +2°C° 0 mm 2 mps 710 mmHg 65%
    23:00 +1°C° 0 mm 2 mps 710 mmHg 68%
    Show more